Weather History for KWMC - September, 2013

Change the Weather History Date:

Friday, September 6, 2013

  Actual Average Record
Temperature  
Mean Temperature 63 °F 64 °F  
Max Temperature 84 °F 85 °F 98 °F (1955)
Min Temperature 42 °F 43 °F 27 °F (2010)
Degree Days  
Heating Degree Days 2 3  
Month to date heating degree days 2 15  
Since 1 July heating degree days 2 45  
Cooling Degree Days 0 2  
Month to date cooling degree days 44 13  
Year to date cooling degree days 725 523  
Growing Degree Days 12 (Base 50)    
Moisture  
Dew Point 31 °F    
Average Humidity 48    
Maximum Humidity 82    
Minimum Humidity 14    
Precipitation  
Precipitation 0.00 in 0.01 in 0.46 in (1978)
Month to date precipitation 0.39 0.06  
Year to date precipitation 2.80 5.42  
Snow  
Snow 0.00 in 0.00 in 0.00 in (1877)
Month to date snowfall 0.0 0.0  
Since 1 July snowfall T 0.0  
Since 1 September snowfall 0.0 0.0  
Snow Depth 0.00 in    
Sea Level Pressure  
Sea Level Pressure 30.01 in    
Wind  
Wind Speed 4 mph (WNW)    
Max Wind Speed 13 mph    
Max Gust Speed 18 mph    
Visibility 10 miles    
Events      
T = Trace of Precipitation, MM = Missing Value Source: NWS Daily Summary

Daily Weather History Graph

Daily Weather History Graph

Search for Another Location

Airport or City:

Trip Planner

Search our weather history database for the weather conditions in past years. The results will help you decide how hot, cold, wet, or windy it might be!

Date:

Astronomy

Sep. 06, 2013 Rise Set
Actual Time 6:23 AM PDT 7:14 PM PDT
Civil Twilight 5:55 AM PDT 7:42 PM PDT
Nautical Twilight 5:22 AM PDT 8:15 PM PDT
Astronomical Twilight 4:47 AM PDT 8:49 PM PDT
Moon 7:41 AM PDT (9/6) 7:40 PM PDT (9/6)
Length of Visible Light 13h 47m
Length of Day
12h 51m
New Moon, 2% of the Moon is Illuminated
Sep 6
New Moon
Sep 12
First Quarter
Sep 19
Full
Sep 26
Last Quarter
Oct 4
New

Hourly Weather History & Observations

Time (PDT) Temp. Windchill Dew Point Humidity Pressure Visibility Wind Dir Wind Speed Gust Speed Precip Events Conditions
12:56 AM 55.9 °F - 32.0 °F 40% 29.99 in 10.0 mi Calm Calm - N/A   Clear
1:56 AM 60.1 °F - 28.0 °F 30% 29.97 in 10.0 mi Calm Calm - N/A   Clear
2:56 AM 57.0 °F - 34.0 °F 42% 29.98 in 10.0 mi Calm Calm - N/A   Clear
3:56 AM 46.0 °F - 35.1 °F 66% 30.02 in 10.0 mi Calm Calm - N/A   Clear
4:56 AM 45.0 °F 43.5 °F 37.0 °F 74% 30.03 in 10.0 mi SSE 3.5 mph - N/A   Clear
5:56 AM 43.0 °F 39.5 °F 37.0 °F 80% 30.04 in 10.0 mi SSE 5.8 mph - N/A   Clear
6:56 AM 42.1 °F 40.2 °F 37.0 °F 82% 30.08 in 10.0 mi ESE 3.5 mph - N/A   Clear
7:56 AM 55.0 °F - 39.0 °F 55% 30.07 in 10.0 mi Calm Calm - N/A   Clear
8:56 AM 64.0 °F - 30.9 °F 29% 30.06 in 10.0 mi WSW 4.6 mph - N/A   Clear
9:56 AM 70.0 °F - 30.0 °F 23% 30.04 in 10.0 mi Calm Calm - N/A   Clear
10:56 AM 73.9 °F - 28.0 °F 18% 30.04 in 10.0 mi NW 6.9 mph - N/A   Clear
11:56 AM 75.9 °F - 28.0 °F 17% 30.03 in 10.0 mi Variable 5.8 mph - N/A   Clear
12:56 PM 78.1 °F - 28.0 °F 16% 30.02 in 10.0 mi Calm Calm - N/A   Clear
1:56 PM 80.1 °F - 27.0 °F 14% 29.99 in 10.0 mi WNW 6.9 mph 17.3 mph N/A   Clear
2:56 PM 81.0 °F - 30.0 °F 16% 29.96 in 10.0 mi Variable 5.8 mph - N/A   Clear
3:56 PM 82.9 °F - 30.9 °F 15% 29.97 in 10.0 mi WNW 11.5 mph 16.1 mph N/A   Clear
4:56 PM 82.0 °F - 30.0 °F 15% 29.96 in 10.0 mi Calm Calm - N/A   Clear
5:56 PM 81.0 °F - 28.9 °F 15% 29.96 in 10.0 mi WNW 8.1 mph - N/A   Clear
6:56 PM 75.9 °F - 30.9 °F 19% 29.97 in 10.0 mi WNW 6.9 mph - N/A   Clear
7:56 PM 66.0 °F - 30.9 °F 27% 29.98 in 10.0 mi Calm Calm - N/A   Clear
8:56 PM 66.0 °F - 27.0 °F 23% 29.98 in 10.0 mi Calm Calm - N/A   Clear
9:56 PM 59.0 °F - 28.0 °F 31% 29.99 in 10.0 mi NNW 4.6 mph - N/A   Clear
10:56 PM 57.9 °F - 21.9 °F 25% 29.99 in 10.0 mi NW 6.9 mph - N/A   Clear
11:56 PM 52.0 °F - 28.9 °F 41% 30.01 in 10.0 mi West 3.5 mph - N/A   Clear